Time,TemperatureF,DewpointF,PressureIn,WindDirection,WindDirectionDegrees,WindSpeedMPH,WindSpeedGustMPH,Humidity,HourlyPrecipIn,Conditions,Clouds,dailyrainin,SoftwareType,DateUTC
2013-01-17 00:07:00,33.1,28.0,30.08,WSW,255,4.0,11.0,81,0.00,,,0.00,weatherlink.com 1.10,2013-01-17 05:07:00,
2013-01-17 00:23:00,33.2,28.0,30.09,WNW,294,3.0,11.0,82,0.00,,,0.00,weatherlink.com 1.10,2013-01-17 05:23:00,
2013-01-17 00:38:00,33.3,28.0,30.10,WSW,249,2.0,13.0,82,0.00,,,0.00,weatherlink.com 1.10,2013-01-17 05:38:00,
2013-01-17 00:54:00,33.2,28.0,30.10,WSW,250,9.0,11.0,82,0.00,,,0.00,weatherlink.com 1.10,2013-01-17 05:54:00,
2013-01-17 01:09:00,32.6,28.0,30.10,WSW,250,3.0,11.0,83,0.00,,,0.00,weatherlink.com 1.10,2013-01-17 06:09:00,
2013-01-17 01:23:00,32.2,28.0,30.11,WSW,246,2.0,8.0,84,0.00,,,0.00,weatherlink.com 1.10,2013-01-17 06:23:00,
2013-01-17 01:39:00,31.7,28.0,30.12,SW,229,5.0,8.0,85,0.00,,,0.00,weatherlink.com 1.10,2013-01-17 06:39:00,
2013-01-17 01:53:00,31.6,28.0,30.12,SSW,206,4.0,8.0,85,0.00,,,0.00,weatherlink.com 1.10,2013-01-17 06:53:00,
2013-01-17 02:11:00,31.4,27.0,30.13,SW,225,3.0,7.0,85,0.00,,,0.00,weatherlink.com 1.10,2013-01-17 07:11:00,
2013-01-17 02:24:00,31.1,27.0,30.13,WSW,255,4.0,7.0,86,0.00,,,0.00,weatherlink.com 1.10,2013-01-17 07:24:00,
2013-01-17 02:40:00,30.9,27.0,30.14,WSW,239,2.0,6.0,86,0.00,,,0.00,weatherlink.com 1.10,2013-01-17 07:40:00,
2013-01-17 02:54:00,30.8,27.0,30.14,WSW,255,1.0,6.0,86,0.00,,,0.00,weatherlink.com 1.10,2013-01-17 07:54:00,
2013-01-17 03:10:00,30.8,27.0,30.14,WNW,296,3.0,5.0,87,0.00,,,0.00,weatherlink.com 1.10,2013-01-17 08:10:00,
2013-01-17 03:26:00,30.9,28.0,30.14,NW,305,2.0,5.0,87,0.00,,,0.00,weatherlink.com 1.10,2013-01-17 08:26:00,
2013-01-17 03:42:00,30.8,27.0,30.14,NW,304,2.0,4.0,87,0.00,,,0.00,weatherlink.com 1.10,2013-01-17 08:42:00,
2013-01-17 03:56:00,30.7,28.0,30.14,WNW,303,3.0,5.0,88,0.00,,,0.00,weatherlink.com 1.10,2013-01-17 08:56:00,
2013-01-17 04:11:00,30.9,28.0,30.14,WNW,297,2.0,4.0,88,0.00,,,0.00,weatherlink.com 1.10,2013-01-17 09:11:00,
2013-01-17 04:26:00,30.6,28.0,30.15,WNW,297,2.0,4.0,88,0.00,,,0.00,weatherlink.com 1.10,2013-01-17 09:26:00,
2013-01-17 04:42:00,30.3,27.0,30.15,WNW,295,1.0,3.0,88,0.00,,,0.00,weatherlink.com 1.10,2013-01-17 09:42:00,
2013-01-17 04:56:00,29.7,27.0,30.15,WNW,295,1.0,2.0,89,0.00,,,0.00,weatherlink.com 1.10,2013-01-17 09:56:00,
2013-01-17 05:13:00,29.2,27.0,30.15,WNW,295,0.0,2.0,90,0.00,,,0.00,weatherlink.com 1.10,2013-01-17 10:13:00,
2013-01-17 05:28:00,28.5,26.0,30.16,WNW,295,1.0,2.0,90,0.00,,,0.00,weatherlink.com 1.10,2013-01-17 10:28:00,
2013-01-17 05:42:00,28.0,26.0,30.15,WNW,295,1.0,2.0,91,0.00,,,0.00,weatherlink.com 1.10,2013-01-17 10:42:00,
2013-01-17 05:58:00,27.7,26.0,30.17,WNW,295,0.0,0.0,92,0.00,,,0.00,weatherlink.com 1.10,2013-01-17 10:58:00,
2013-01-17 06:13:00,27.7,26.0,30.17,WNW,295,0.0,2.0,93,0.00,,,0.00,weatherlink.com 1.10,2013-01-17 11:13:00,
2013-01-17 06:29:00,27.5,26.0,30.17,WNW,295,0.0,2.0,92,0.00,,,0.00,weatherlink.com 1.10,2013-01-17 11:29:00,
2013-01-17 06:44:00,27.5,26.0,30.18,WNW,295,1.0,2.0,93,0.00,,,0.00,weatherlink.com 1.10,2013-01-17 11:44:00,
2013-01-17 06:59:00,28.0,26.0,30.18,WNW,295,0.0,2.0,93,0.00,,,0.00,weatherlink.com 1.10,2013-01-17 11:59:00,
2013-01-17 07:15:00,28.1,26.0,30.19,WNW,295,1.0,3.0,93,0.00,,,0.00,weatherlink.com 1.10,2013-01-17 12:15:00,
2013-01-17 07:32:00,28.2,27.0,30.20,WNW,295,1.0,2.0,93,0.00,,,0.00,weatherlink.com 1.10,2013-01-17 12:32:00,
2013-01-17 07:44:00,27.9,26.0,30.20,WNW,295,0.0,2.0,92,0.00,,,0.00,weatherlink.com 1.10,2013-01-17 12:44:00,
2013-01-17 08:01:00,26.7,25.0,30.21,WNW,295,0.0,0.0,92,0.00,,,0.00,weatherlink.com 1.10,2013-01-17 13:01:00,
2013-01-17 08:16:00,26.0,24.0,30.21,WNW,295,0.0,0.0,92,0.00,,,0.00,weatherlink.com 1.10,2013-01-17 13:16:00,
2013-01-17 08:32:00,25.6,24.0,30.22,WNW,295,0.0,0.0,92,0.00,,,0.00,weatherlink.com 1.10,2013-01-17 13:32:00,
2013-01-17 08:47:00,25.4,24.0,30.23,WNW,295,0.0,0.0,93,0.00,,,0.00,weatherlink.com 1.10,2013-01-17 13:47:00,
2013-01-17 09:01:00,25.4,24.0,30.23,WNW,295,0.0,0.0,93,0.00,,,0.00,weatherlink.com 1.10,2013-01-17 14:01:00,
2013-01-17 09:16:00,26.0,25.0,30.24,WNW,295,0.0,0.0,94,0.00,,,0.00,weatherlink.com 1.10,2013-01-17 14:16:00,
2013-01-17 09:32:00,27.3,26.0,30.25,WNW,295,0.0,0.0,95,0.00,,,0.00,weatherlink.com 1.10,2013-01-17 14:32:00,
2013-01-17 09:46:00,29.5,28.0,30.26,WNW,295,2.0,3.0,95,0.00,,,0.00,weatherlink.com 1.10,2013-01-17 14:46:00,
2013-01-17 10:02:00,31.4,30.0,30.26,WNW,295,1.0,3.0,95,0.00,,,0.00,weatherlink.com 1.10,2013-01-17 15:02:00,
2013-01-17 10:17:00,32.5,31.0,30.27,West,281,5.0,6.0,92,0.00,,,0.00,weatherlink.com 1.10,2013-01-17 15:17:00,
2013-01-17 10:33:00,33.4,31.0,30.27,West,281,1.0,6.0,90,0.00,,,0.00,weatherlink.com 1.10,2013-01-17 15:33:00,
2013-01-17 10:49:00,34.3,31.0,30.27,WNW,298,3.0,6.0,88,0.00,,,0.00,weatherlink.com 1.10,2013-01-17 15:49:00,
2013-01-17 11:03:00,34.8,30.0,30.27,West,281,4.0,8.0,84,0.00,,,0.00,weatherlink.com 1.10,2013-01-17 16:03:00,
2013-01-17 11:18:00,35.3,30.0,30.27,West,269,5.0,6.0,82,0.00,,,0.00,weatherlink.com 1.10,2013-01-17 16:18:00,
2013-01-17 11:35:00,35.3,30.0,30.26,West,275,2.0,9.0,82,0.00,,,0.00,weatherlink.com 1.10,2013-01-17 16:35:00,
2013-01-17 11:50:00,35.7,31.0,30.26,West,267,4.0,7.0,82,0.00,,,0.00,weatherlink.com 1.10,2013-01-17 16:50:00,
2013-01-17 12:06:00,36.8,30.0,30.25,WNW,283,6.0,10.0,76,0.00,,,0.00,weatherlink.com 1.10,2013-01-17 17:06:00,
2013-01-17 12:21:00,37.5,29.0,30.24,WNW,292,10.0,13.0,71,0.00,,,0.00,weatherlink.com 1.10,2013-01-17 17:21:00,
2013-01-17 12:34:00,38.0,29.0,30.23,NNW,328,6.0,10.0,70,0.00,,,0.00,weatherlink.com 1.10,2013-01-17 17:34:00,
2013-01-17 12:49:00,38.2,28.0,30.23,West,281,6.0,12.0,66,0.00,,,0.00,weatherlink.com 1.10,2013-01-17 17:49:00,
2013-01-17 13:07:00,38.6,28.0,30.22,WNW,290,8.0,12.0,66,0.00,,,0.00,weatherlink.com 1.10,2013-01-17 18:07:00,
2013-01-17 13:21:00,38.7,27.0,30.22,North,351,6.0,13.0,63,0.00,,,0.00,weatherlink.com 1.10,2013-01-17 18:21:00,
2013-01-17 13:36:00,38.9,28.0,30.21,NNW,332,5.0,12.0,65,0.00,,,0.00,weatherlink.com 1.10,2013-01-17 18:36:00,
2013-01-17 13:52:00,39.1,27.0,30.21,NNE,15,6.0,12.0,62,0.00,,,0.00,weatherlink.com 1.10,2013-01-17 18:52:00,
2013-01-17 14:07:00,38.9,26.0,30.21,NW,326,11.0,16.0,61,0.00,,,0.00,weatherlink.com 1.10,2013-01-17 19:07:00,
2013-01-17 14:22:00,39.1,27.0,30.21,NNW,330,6.0,13.0,61,0.00,,,0.00,weatherlink.com 1.10,2013-01-17 19:22:00,
2013-01-17 14:36:00,39.1,26.0,30.21,NW,325,6.0,16.0,59,0.00,,,0.00,weatherlink.com 1.10,2013-01-17 19:36:00,
2013-01-17 14:51:00,38.8,25.0,30.21,North,350,3.0,13.0,59,0.00,,,0.00,weatherlink.com 1.10,2013-01-17 19:51:00,
2013-01-17 15:07:00,38.7,25.0,30.22,NNW,347,8.0,17.0,59,0.00,,,0.00,weatherlink.com 1.10,2013-01-17 20:07:00,
2013-01-17 15:22:00,38.4,25.0,30.22,North,355,12.0,16.0,59,0.00,,,0.00,weatherlink.com 1.10,2013-01-17 20:22:00,
2013-01-17 15:37:00,38.2,25.0,30.22,NW,305,10.0,16.0,60,0.00,,,0.00,weatherlink.com 1.10,2013-01-17 20:37:00,
2013-01-17 15:53:00,37.8,24.0,30.23,NW,325,9.0,14.0,59,0.00,,,0.00,weatherlink.com 1.10,2013-01-17 20:53:00,
2013-01-17 16:09:00,37.1,24.0,30.23,NNW,333,7.0,15.0,60,0.00,,,0.00,weatherlink.com 1.10,2013-01-17 21:09:00,
2013-01-17 16:24:00,36.6,23.0,30.25,NNW,344,9.0,16.0,59,0.00,,,0.00,weatherlink.com 1.10,2013-01-17 21:24:00,
2013-01-17 16:39:00,35.7,23.0,30.26,NW,313,12.0,19.0,61,0.00,,,0.00,weatherlink.com 1.10,2013-01-17 21:39:00,
2013-01-17 16:54:00,34.6,23.0,30.26,WNW,302,5.0,17.0,62,0.00,,,0.00,weatherlink.com 1.10,2013-01-17 21:54:00,
2013-01-17 17:09:00,33.8,22.0,30.26,NNW,346,7.0,19.0,63,0.00,,,0.00,weatherlink.com 1.10,2013-01-17 22:09:00,
2013-01-17 17:26:00,32.9,21.0,30.27,NNW,335,9.0,16.0,63,0.00,,,0.00,weatherlink.com 1.10,2013-01-17 22:26:00,
2013-01-17 17:39:00,32.0,21.0,30.28,NNW,336,7.0,14.0,65,0.00,,,0.00,weatherlink.com 1.10,2013-01-17 22:39:00,
2013-01-17 17:54:00,31.0,21.0,30.29,NW,314,9.0,16.0,66,0.00,,,0.00,weatherlink.com 1.10,2013-01-17 22:54:00,
2013-01-17 18:12:00,30.5,21.0,30.30,NW,316,9.0,15.0,69,0.00,,,0.00,weatherlink.com 1.10,2013-01-17 23:12:00,
2013-01-17 18:27:00,29.8,20.0,30.32,NW,319,10.0,17.0,68,0.00,,,0.00,weatherlink.com 1.10,2013-01-17 23:27:00,
2013-01-17 18:42:00,29.2,20.0,30.33,NW,319,6.0,18.0,69,0.00,,,0.00,weatherlink.com 1.10,2013-01-17 23:42:00,
2013-01-17 18:57:00,28.6,20.0,30.33,NNW,333,8.0,20.0,71,0.00,,,0.00,weatherlink.com 1.10,2013-01-17 23:57:00,
2013-01-17 19:12:00,28.0,20.0,30.34,NNW,336,7.0,15.0,71,0.00,,,0.00,weatherlink.com 1.10,2013-01-18 00:12:00,
2013-01-17 19:27:00,27.5,20.0,30.35,NNW,332,4.0,15.0,73,0.00,,,0.00,weatherlink.com 1.10,2013-01-18 00:27:00,
2013-01-17 19:41:00,27.1,20.0,30.36,NW,312,9.0,10.0,74,0.00,,,0.00,weatherlink.com 1.10,2013-01-18 00:41:00,
2013-01-17 19:57:00,26.7,18.0,30.37,WNW,292,8.0,15.0,71,0.00,,,0.00,weatherlink.com 1.10,2013-01-18 00:57:00,
2013-01-17 20:12:00,26.2,18.0,30.38,North,360,8.0,16.0,71,0.00,,,0.00,weatherlink.com 1.10,2013-01-18 01:12:00,
2013-01-17 20:27:00,25.9,18.0,30.39,NW,309,5.0,14.0,72,0.00,,,0.00,weatherlink.com 1.10,2013-01-18 01:27:00,
2013-01-17 20:42:00,25.6,18.0,30.39,WNW,303,6.0,8.0,73,0.00,,,0.00,weatherlink.com 1.10,2013-01-18 01:42:00,
2013-01-17 20:58:00,25.3,18.0,30.40,NNW,331,4.0,10.0,73,0.00,,,0.00,weatherlink.com 1.10,2013-01-18 01:58:00,
2013-01-17 21:13:00,25.1,18.0,30.40,NNW,338,4.0,7.0,74,0.00,,,0.00,weatherlink.com 1.10,2013-01-18 02:13:00,
2013-01-17 21:28:00,24.8,18.0,30.41,NW,305,4.0,7.0,74,0.00,,,0.00,weatherlink.com 1.10,2013-01-18 02:28:00,
2013-01-17 21:43:00,24.5,18.0,30.41,NW,316,2.0,6.0,75,0.00,,,0.00,weatherlink.com 1.10,2013-01-18 02:43:00,
2013-01-17 22:00:00,24.2,17.0,30.41,West,265,2.0,5.0,75,0.00,,,0.00,weatherlink.com 1.10,2013-01-18 03:00:00,
2013-01-17 22:16:00,23.9,17.0,30.41,West,273,2.0,3.0,74,0.00,,,0.00,weatherlink.com 1.10,2013-01-18 03:16:00,
2013-01-17 22:29:00,23.6,16.0,30.41,West,275,3.0,5.0,74,0.00,,,0.00,weatherlink.com 1.10,2013-01-18 03:29:00,
2013-01-17 22:46:00,23.5,16.0,30.42,West,281,1.0,5.0,74,0.00,,,0.00,weatherlink.com 1.10,2013-01-18 03:46:00,
2013-01-17 23:00:00,23.4,17.0,30.42,WNW,287,2.0,5.0,75,0.00,,,0.00,weatherlink.com 1.10,2013-01-18 04:00:00,
2013-01-17 23:16:00,23.1,17.0,30.42,WNW,287,1.0,4.0,77,0.00,,,0.00,weatherlink.com 1.10,2013-01-18 04:16:00,
2013-01-17 23:31:00,22.8,17.0,30.43,WNW,287,0.0,4.0,77,0.00,,,0.00,weatherlink.com 1.10,2013-01-18 04:31:00,
2013-01-17 23:47:00,22.5,17.0,30.43,WNW,287,2.0,3.0,79,0.00,,,0.00,weatherlink.com 1.10,2013-01-18 04:47:00,